Location: Engelmannsreuth
(49.8125°N, 11.6497°E)
Time: 06:27:30
(UTC+00:00)

STARLINK-1184 - Pass Details

Date: 17 February 2020
Orbit: 379 x 380 km, 53.0° (Epoch: 28 March)

Event Time Altitude Azimuth Distance (km) Brightness Sun altitude
Exits shadow 03:36:32 19° 63° (ENE) 1,006 5.7 -27.1°
Drops below altitude 10° 03:37:34 10° 67° (ENE) 1,412 6.7 -26.9°
Enters shadow 04:32:32 -71° 263° (W) 12,425 10.5 -18.1°
